Concordia, KS

9:41 AM CDT on May 25, 2017 (GMT -0500)
Blosser Municipal

Weather History for KCNK - November, 2012

Change the Weather History Date:

Thursday, November 8, 2012

  Actual Average Record
Temperature  
Mean Temperature 54 °F 46 °F  
Max Temperature 68 °F 57 °F 85 °F (2006)
Min Temperature 39 °F 35 °F 12 °F (1991)
Degree Days  
Heating Degree Days 11 19  
Month to date heating degree days 119 140  
Since 1 July heating degree days 566 531  
Cooling Degree Days 0 0  
Month to date cooling degree days 0 0  
Year to date cooling degree days 1643 1348  
Growing Degree Days 4 (Base 50)    
Moisture  
Dew Point 34 °F    
Average Humidity 55    
Maximum Humidity 76    
Minimum Humidity 34    
Precipitation  
Precipitation 0.00 in 0.05 in 1.09 in (1977)
Month to date precipitation T 0.37  
Year to date precipitation 22.63 26.30  
Snow  
Snow 0.00 in 0.00 in T in (1977)
Month to date snowfall 0.0 0.3  
Year to date snowfall 5.8 14.2  
Since 1 July snowfall 0.0 0.5  
Snow Depth 0.00 in    
Sea Level Pressure  
Sea Level Pressure 29.87 in    
Wind  
Wind Speed 8 mph (SSE)    
Max Wind Speed 18 mph    
Max Gust Speed 24 mph    
Visibility 10 miles    
Events      
T = Trace of Precipitation, MM = Missing Value Source: NWS Daily Summary

Daily Weather History Graph

Daily Weather History Graph

Search for Another Location

Airport or City:

Trip Planner

Search our weather history database for the weather conditions in past years. The results will help you decide how hot, cold, wet, or windy it might be!

Date:

Astronomy

Nov. 08, 2012 Rise Set
Actual Time 7:07 AM CST 5:20 PM CST
Civil Twilight 6:38 AM CST 5:49 PM CST
Nautical Twilight 6:06 AM CST 6:21 PM CST
Astronomical Twilight 5:35 AM CST 6:53 PM CST
Moon 1:05 AM CST (11/8) 2:01 PM CST (11/8)
Length of Visible Light 11h 10m
Length of Day
10h 13m
Waning Crescent, 32% of the Moon is Illuminated
Nov 8
Waning Crescent
Nov 13
New
Nov 20
First Quarter
Nov 28
Full
Dec 6
Last Quarter

Hourly Weather History & Observations

Time (CST) Temp. Windchill Dew Point Humidity Pressure Visibility Wind Dir Wind Speed Gust Speed Precip Events Conditions
12:55 AM 46.9 °F - 28.0 °F 48% 29.98 in 10.0 mi SSE 13.8 mph - N/A   Clear
1:55 AM 48.0 °F - 28.0 °F 46% 29.96 in 10.0 mi SSE 17.3 mph - N/A   Clear
2:55 AM 46.9 °F - 28.0 °F 48% 29.95 in 10.0 mi SE 12.7 mph - N/A   Clear
3:55 AM 46.0 °F 40.6 °F 28.9 °F 51% 29.93 in 10.0 mi SE 11.5 mph 19.6 mph N/A   Clear
4:55 AM 46.0 °F 40.2 °F 28.9 °F 51% 29.92 in 10.0 mi SE 12.7 mph - N/A   Clear
5:55 AM 45.0 °F 39.7 °F 28.9 °F 53% 29.93 in 10.0 mi SSE 10.4 mph - N/A   Clear
6:55 AM 39.9 °F 37.8 °F 28.9 °F 65% 29.94 in 10.0 mi ESE 3.5 mph - N/A   Clear
7:55 AM 42.1 °F 40.2 °F 30.0 °F 62% 29.94 in 10.0 mi East 3.5 mph - N/A   Clear
8:55 AM 52.0 °F - 30.9 °F 45% 29.93 in 10.0 mi SSE 11.5 mph - N/A   Clear
9:55 AM 57.0 °F - 32.0 °F 39% 29.91 in 10.0 mi South 15.0 mph 23.0 mph N/A   Clear
10:55 AM 60.1 °F - 34.0 °F 38% 29.90 in 10.0 mi South 16.1 mph - N/A   Clear
11:55 AM 63.0 °F - 36.0 °F 37% 29.88 in 10.0 mi South 8.1 mph 20.7 mph N/A   Clear
12:55 PM 64.0 °F - 36.0 °F 35% 29.85 in 10.0 mi SSW 5.8 mph - N/A   Clear
1:55 PM 66.0 °F - 37.9 °F 36% 29.81 in 10.0 mi South 6.9 mph 16.1 mph N/A   Clear
2:55 PM 66.9 °F - 39.0 °F 36% 29.81 in 10.0 mi South 8.1 mph - N/A   Clear
3:55 PM 66.9 °F - 39.9 °F 37% 29.81 in 10.0 mi South 9.2 mph - N/A   Clear
4:55 PM 63.0 °F - 39.0 °F 41% 29.82 in 10.0 mi South 4.6 mph - N/A   Clear
5:55 PM 60.1 °F - 39.0 °F 46% 29.83 in 10.0 mi Calm Calm - N/A   Clear
6:55 PM 54.0 °F - 39.0 °F 57% 29.86 in 10.0 mi Calm Calm - N/A   Clear
7:55 PM 55.0 °F - 39.0 °F 55% 29.84 in 10.0 mi NNE 3.5 mph - N/A   Clear
8:55 PM 46.9 °F - 37.9 °F 71% 29.83 in 10.0 mi East 4.6 mph - N/A   Clear
9:55 PM 48.9 °F - 39.0 °F 69% 29.82 in 10.0 mi Calm Calm - N/A   Clear
10:55 PM 46.9 °F - 39.0 °F 74% 29.80 in 10.0 mi Calm Calm - N/A   Clear
11:55 PM 44.1 °F 42.5 °F 37.0 °F 76% 29.79 in 10.0 mi East 3.5 mph - N/A   Clear